EW2327 Weather Reports


Display with metric or nautical units.
time (UTC)temp
F
wind
direction
speed
MPH
gust
MPH
rain 1hr
in
rain 24hr
in
rain mn
in
humidity
%
barometer
mb
20200122101718 47 193 1.0 8.0 0.04 0.08 0.07 85 1026.4
20200122100125 47 220 2.0 8.0 0.04 0.07 0.06 85 1026.8
20200122094652 47 182 2.0 8.0 0.03 0.06 0.05 85 1027.3
20200122093210 47 220 2.0 10.0 0.03 0.05 0.04 84 1027.3
20200122091655 47 201 0.0 4.0 0.02 0.04 0.03 83 1027.7
20200122090101 47 152 2.0 9.0 0.02 0.04 0.03 83 1027.7
20200122084615 47 171 3.0 9.0 0.01 0.03 0.02 83 1027.8
20200122083121 47 105 3.0 9.0 0.00 0.02 0.01 82 1028.4
20200122081542 47 218 0.0 10.0 0.00 0.02 0.01 81 1028.8
20200122080057 47 194 2.0 8.0 0.00 0.02 0.01 81 1029.2
20200122074653 47 191 0.0 9.0 0.00 0.02 0.01 80 1029.6
20200122073108 47 116 1.0 10.0 0.01 0.02 0.01 80 1029.8
20200122071533 48 153 0.0 7.0 0.02 0.02 0.01 78 1030.2
20200122070040 48 144 0.0 4.0 0.02 0.02 0.01 78 1030.1
20200122064541 48 150 1.0 8.0 0.02 0.02 0.01 77 1030.0
20200122063023 49 179 0.0 5.0 0.01 0.01 0.01 75 1030.6
20200122061636 49 190 0.0 7.0 0.00 0.00 0.00 74 1031.7
20200122060039 50 138 1.0 6.0 0.00 0.00 0.00 72 1032.2
20200122054538 51 177 0.0 7.0 0.00 0.00 0.00 71 1031.9
20200122053011 51 171 1.0 8.0 0.00 0.00 0.00 71 1032.0
20200122051524 51 140 0.0 9.0 0.00 0.00 0.00 70 1032.2
20200122050033 51 171 3.0 9.0 0.00 0.00 0.00 70 1032.6
20200122044539 52 182 2.0 6.0 0.00 0.00 0.00 69 1032.6
20200122043032 52 206 3.0 15.0 0.00 0.00 0.00 69 1032.5
20200122041549 52 157 3.0 15.0 0.00 0.00 0.00 68 1031.7
20200122040014 52 192 6.0 13.0 0.00 0.00 0.00 67 1031.6
20200122034518 53 136 4.0 11.0 0.00 0.00 0.00 66 1031.9
20200122033046 53 175 5.0 17.0 0.00 0.00 0.00 64 1032.1
20200122031522 53 162 4.0 11.0 0.00 0.00 0.00 63 1032.5
20200122030113 53 190 5.0 12.0 0.00 0.00 0.00 61 1031.9
20200122024541 54 100 5.0 12.0 0.00 0.00 0.00 60 1031.9
20200122023024 54 184 3.0 16.0 0.00 0.00 0.00 57 1032.2
20200122021530 54 142 2.0 11.0 0.00 0.00 0.00 55 1032.0
20200122020007 54 189 3.0 11.0 0.00 0.00 0.00 54 1032.4
20200122014506 55 180 3.0 11.0 0.00 0.00 0.00 53 1032.5
20200122013058 55 189 1.0 7.0 0.00 0.00 0.00 52 1032.4
20200122011516 55 119 3.0 11.0 0.00 0.00 0.00 51 1032.1
20200122010316 55 173 1.0 10.0 0.00 0.00 0.00 49 1032.6
20200122004512 55 194 0.0 7.0 0.00 0.00 0.00 48 1032.9
20200122003009 55 216 0.0 4.0 0.00 0.00 0.00 47 1033.1
20200122001737 56 192 1.0 8.0 0.00 0.00 0.00 47 1033.0
20200121233158 57 150 2.0 9.0 0.00 0.00 0.00 45 1032.8
20200121231739 57 159 1.0 8.0 0.00 0.00 0.00 45 1033.5
20200121230431 57 127 3.0 10.0 0.00 0.00 0.00 45 1032.8
20200121223146 58 145 3.0 10.0 0.00 0.00 0.00 44 1033.3
20200121221643 59 200 4.0 11.0 0.00 0.00 0.00 44 1033.5
20200121220147 59 159 2.0 8.0 0.00 0.00 0.00 45 1033.3
20200121213407 59 179 2.0 12.0 0.00 0.00 0.00 44 1034.1
20200121211732 60 210 3.0 10.0 0.00 0.00 0.00 44 1033.9
20200121210143 60 132 4.0 14.0 0.00 0.00 0.00 44 1034.4
20200121203112 59 120 2.0 13.0 0.00 0.00 0.00 45 1035.4
20200121201724 60 211 6.0 16.0 0.00 0.00 0.00 44 1035.7
20200121200140 60 165 3.0 11.0 0.00 0.00 0.00 46 1036.0
20200121194554 59 72 2.0 12.0 0.00 0.00 0.00 47 1036.2
20200121193056 59 178 1.0 7.0 0.00 0.00 0.00 48 1036.9
20200121190142 59 158 3.0 9.0 0.00 0.00 0.00 48 1037.8
20200121184636 58 188 7.0 14.0 0.00 0.00 0.00 48 1037.9
20200121183059 58 197 5.0 12.0 0.00 0.00 0.00 49 1038.0
20200121180045 57 183 4.0 9.0 0.00 0.00 0.00 52 1038.7
20200121174534 56 183 3.0 10.0 0.00 0.00 0.00 53 1038.9
20200121173219 55 128 3.0 9.0 0.00 0.00 0.00 54 1039.1
20200121170028 54 175 1.0 6.0 0.00 0.00 0.00 58 1039.3
20200121164516 53 148 4.0 8.0 0.00 0.00 0.00 58 1039.5
20200121163020 53 192 5.0 10.0 0.00 0.00 0.00 59 1039.7
20200121154631 50 159 5.0 11.0 0.00 0.00 0.00 63 1039.5
20200121153234 48 189 3.0 10.0 0.00 0.00 0.00 66 1039.5
20200121150115 45 209 1.0 4.0 0.00 0.00 0.00 69 1039.8
20200121144631 44 198 0.0 5.0 0.00 0.00 0.00 70 1039.6
20200121143142 42 151 0.0 3.0 0.00 0.00 0.00 71 1039.7
20200121140121 41 144 0.0 0.0 0.00 0.00 0.00 71 1039.2
20200121134700 41 144 0.0 1.0 0.00 0.00 0.00 71 1039.2
20200121133149 40 150 0.0 1.0 0.00 0.00 0.00 71 1039.2
20200121130121 39 146 0.0 0.0 0.00 0.00 0.00 69 1039.0
20200121124623 39 146 0.0 0.0 0.00 0.00 0.00 69 1038.6
20200121123058 40 146 0.0 0.0 0.00 0.00 0.00 68 1039.0
20200121120059 40 146 0.0 0.0 0.00 0.00 0.00 67 1039.4
20200121114550 41 146 0.0 0.0 0.00 0.00 0.00 66 1039.5
20200121113048 41 146 0.0 0.0 0.00 0.00 0.00 66 1039.7
20200121110044 41 146 0.0 0.0 0.00 0.00 0.00 66 1039.7
20200121104549 41 146 0.0 0.0 0.00 0.00 0.00 66 1040.0
20200121103135 41 146 0.0 0.0 0.00 0.00 0.00 65 1039.9